Martinsburg, WV

12:47 PM EST on January 19, 2018 (GMT -0500)
Eastern W Va Regional-Shepherd

Weather History for KMRB - January, 2013

Change the Weather History Date:

Friday, January 18, 2013

  Actual Average Record
Temperature  
Mean Temperature 32 °F 31 °F  
Max Temperature 38 °F 39 °F 69 °F (1990)
Min Temperature 25 °F 22 °F -6 °F (2003)
Degree Days  
Heating Degree Days 33 34  
Month to date heating degree days 477 612  
Since 1 July heating degree days 2363 2638  
Cooling Degree Days 0 0  
Month to date cooling degree days 0 0  
Year to date cooling degree days 0 0  
Moisture  
Dew Point 13 °F    
Average Humidity 45    
Maximum Humidity 62    
Minimum Humidity 27    
Precipitation  
Precipitation 0.00 in 0.08 in 0.80 in (1937)
Month to date precipitation 1.40 1.37  
Year to date precipitation 1.40 1.37  
Sea Level Pressure  
Sea Level Pressure 30.38 in    
Wind  
Wind Speed 8 mph (NW)    
Max Wind Speed 25 mph    
Max Gust Speed 36 mph    
Visibility 10 miles    
Events      
T = Trace of Precipitation, MM = Missing Value Source: NWS Daily Summary

Daily Weather History Graph

Daily Weather History Graph

Search for Another Location

Airport or City:

Trip Planner

Search our weather history database for the weather conditions in past years. The results will help you decide how hot, cold, wet, or windy it might be!

Date:

Astronomy

Jan. 18, 2013 Rise Set
Actual Time 7:28 AM EST 5:16 PM EST
Civil Twilight 6:59 AM EST 5:45 PM EST
Nautical Twilight 6:26 AM EST 6:18 PM EST
Astronomical Twilight 5:54 AM EST 6:50 PM EST
Moon 11:08 AM EST (1/18) 12:02 AM EST (1/18)
Length of Visible Light 10h 45m
Length of Day
9h 47m
Waxing Crescent, 47% of the Moon is Illuminated
Jan 18
Waxing Crescent
Jan 18
First Quarter
Jan 26
Full
Feb 3
Last Quarter
Feb 10
New

Hourly Weather History & Observations

Time (EST) Temp. Windchill Dew Point Humidity Pressure Visibility Wind Dir Wind Speed Gust Speed Precip Events Conditions
12:53 AM 37.0 °F 29.8 °F 23.0 °F 57% 30.12 in 10.0 mi WNW 10.4 mph - N/A   Clear
1:53 AM 37.0 °F 28.1 °F 21.9 °F 54% 30.15 in 10.0 mi WNW 15.0 mph 19.6 mph N/A   Clear
2:53 AM 37.0 °F 28.5 °F 21.9 °F 54% 30.17 in 10.0 mi West 13.8 mph 20.7 mph N/A   Overcast
3:53 AM 37.0 °F 26.4 °F 18.0 °F 46% 30.18 in 10.0 mi NW 20.7 mph 28.8 mph N/A   Mostly Cloudy
4:53 AM 35.1 °F 26.4 °F 17.1 °F 48% 30.22 in 10.0 mi NW 12.7 mph 26.5 mph N/A   Overcast
5:53 AM 33.1 °F 22.2 °F 14.0 °F 46% 30.27 in 10.0 mi NNW 17.3 mph 25.3 mph N/A   Clear
6:53 AM 30.9 °F 23.5 °F 12.0 °F 46% 30.33 in 10.0 mi NW 8.1 mph 23.0 mph N/A   Clear
7:53 AM 30.0 °F 18.7 °F 15.1 °F 54% 30.39 in 10.0 mi NW 16.1 mph 23.0 mph N/A   Overcast
8:53 AM 30.0 °F 19.1 °F 12.0 °F 47% 30.44 in 10.0 mi North 15.0 mph 23.0 mph N/A   Mostly Cloudy
9:53 AM 28.9 °F 19.2 °F 10.9 °F 47% 30.49 in 10.0 mi North 11.5 mph 19.6 mph N/A   Clear
10:53 AM 30.0 °F 21.7 °F 10.9 °F 45% 30.50 in 10.0 mi NW 9.2 mph 19.6 mph N/A   Clear
11:53 AM 30.9 °F 25.2 °F 10.0 °F 42% 30.49 in 10.0 mi NW 5.8 mph - N/A   Clear
12:53 PM 34.0 °F 25.5 °F 9.0 °F 35% 30.46 in 10.0 mi North 11.5 mph - N/A   Clear
1:53 PM 35.1 °F 27.9 °F 10.0 °F 35% 30.47 in 10.0 mi NW 9.2 mph - N/A   Clear
2:53 PM 36.0 °F 32.1 °F 7.0 °F 30% 30.46 in 10.0 mi Variable 4.6 mph - N/A   Clear
3:53 PM 36.0 °F - 5.0 °F 27% 30.47 in 10.0 mi Calm Calm - N/A   Clear
4:53 PM 35.1 °F - 9.0 °F 34% 30.46 in 10.0 mi Calm Calm - N/A   Clear
5:53 PM 28.9 °F - 15.1 °F 56% 30.45 in 10.0 mi Calm Calm - N/A   Clear
6:53 PM 30.0 °F - 10.0 °F 43% 30.46 in 10.0 mi Calm Calm - N/A   Clear
7:53 PM 28.0 °F - 12.9 °F 53% 30.45 in 10.0 mi Calm Calm - N/A   Clear
8:53 PM 28.0 °F 24.2 °F 12.0 °F 51% 30.45 in 10.0 mi WSW 3.5 mph - N/A   Clear
9:53 PM 28.0 °F 24.2 °F 10.9 °F 49% 30.42 in 10.0 mi SSW 3.5 mph - N/A   Clear
10:53 PM 25.0 °F 20.7 °F 14.0 °F 63% 30.39 in 10.0 mi South 3.5 mph - N/A   Clear
11:53 PM 28.0 °F 22.8 °F 17.1 °F 63% 30.37 in 10.0 mi SSE 4.6 mph - N/A   Clear